This demonstration page uses our WeatherBlox Daily Observations layout. Learn more.

Left ArrowRight Arrow

Hourly Observations for May 4, 2018

Temp ( °F °C ) Dew Point ( °F °C ) Humidity (%) Winds ( mph kmh ) Pressure ( in mb ) Visibility ( mi km ) Precip ( " mm )
12:15 am 00:15 Mostly Cloudy 79 26 61 16 54 54 WSW 7 11 30.03 1017 10 16 0.00 0.00
12:35 am 00:35 Mostly Cloudy 77 25 61 16 57 57 WSW 5 7 30.03 1017 10 16 0.00 0.00
12:55 am 00:55 Partly Cloudy 75 24 61 16 61 61 WSW 6 9 30.03 1017 10 16 0.00 0.00
1:15 am 01:15 Clear 77 25 61 16 57 57 WSW 6 9 30.03 1017 10 16 0.00 0.00
1:35 am 01:35 Clear 75 24 61 16 61 61 SW 5 7 30.03 1017 10 16 0.00 0.00
1:55 am 01:55 Clear 73 23 61 16 65 65 SW 3 6 30.00 1016 10 16 0.00 0.00
2:15 am 02:15 Clear 72 22 61 16 69 69 Calm 30.00 1016 10 16 0.00 0.00
2:35 am 02:35 Clear 73 23 61 16 65 65 Calm 30.00 1016 10 16 0.00 0.00
2:55 am 02:55 Clear 72 22 61 16 69 69 Calm 30.00 1016 10 16 0.00 0.00
3:15 am 03:15 Clear 72 22 61 16 69 69 NNE 5 7 30.00 1016 10 16 0.00 0.00
3:35 am 03:35 Clear 70 21 61 16 73 73 SSE 3 6 30.00 1016 10 16 0.00 0.00
3:55 am 03:55 Clear 72 22 61 16 69 69 Calm 30.00 1016 10 16 0.00 0.00
4:15 am 04:15 Clear 68 20 63 17 83 83 Calm 30.00 1016 10 16 0.00 0.00
4:35 am 04:35 Clear 68 20 63 17 83 83 Calm 30.00 1016 10 16 0.00 0.00
4:55 am 04:55 Clear 66 19 61 16 83 83 Calm 30.00 1016 10 16 0.00 0.00
5:15 am 05:15 Clear 64 18 61 16 88 88 SW 3 6 30.00 1016 10 16 0.00 0.00
5:35 am 05:35 Clear 66 19 61 16 83 83 S 3 6 30.00 1016 10 16 0.00 0.00
5:55 am 05:55 Clear 68 20 63 17 83 83 SSW 5 7 30.00 1016 10 16 0.00 0.00
6:15 am 06:15 Sunny 68 20 63 17 83 83 Calm 30.00 1016 10 16 0.00 0.00
6:35 am 06:35 Sunny 68 20 63 17 83 83 SSW 3 6 30.00 1016 10 16 0.00 0.00
6:55 am 06:55 Sunny 68 20 63 17 83 83 Calm 30.00 1016 10 16 0.00 0.00
7:15 am 07:15 Partly Cloudy 68 20 63 17 83 83 Calm 30.03 1017 10 16 0.00 0.00
7:35 am 07:35 Mostly Cloudy 68 20 63 17 83 83 Calm 30.03 1017 10 16 0.00 0.00
7:55 am 07:55 Partly Cloudy 68 20 63 17 83 83 SSW 3 6 30.03 1017 10 16 0.00 0.00
8:15 am 08:15 Partly Cloudy 68 20 63 17 83 83 Calm 30.03 1017 10 16 0.00 0.00
8:35 am 08:35 Partly Cloudy 68 20 63 17 83 83 Calm 30.03 1017 10 16 0.00 0.00
8:55 am 08:55 Sunny 70 21 63 17 78 78 SSW 5 7 30.03 1017 10 16 0.00 0.00
9:15 am 09:15 Partly Cloudy 70 21 64 18 83 83 Calm 30.03 1017 10 16 0.00 0.00
9:35 am 09:35 Cloudy 70 21 63 17 78 78 Calm 30.03 1017 10 16 0.00 0.00
9:55 am 09:55 Cloudy 72 22 64 18 78 78 Calm 30.03 1017 10 16 0.00 0.00
10:15 am 10:15 Mostly Cloudy 72 22 64 18 78 78 Calm 30.00 1016 10 16 0.00 0.00
10:35 am 10:35 Mostly Cloudy 73 23 64 18 74 74 Calm 30.00 1016 10 16 0.00 0.00
10:55 am 10:55 Mostly Cloudy 77 25 64 18 65 65 S 5 7 30.00 1016 10 16 0.00 0.00
11:15 am 11:15 Cloudy 77 25 64 18 65 65 S 3 6 30.00 1016 10 16 0.00 0.00
11:35 am 11:35 Mostly Cloudy 81 27 66 19 62 62 Calm 30.00 1016 10 16 0.00 0.00
11:55 am 11:55 Partly Cloudy 84 29 64 18 51 51 SSW 7 11 29.97 1015 10 16 0.00 0.00
12:15 pm 12:15 Sunny 86 30 64 18 49 49 SW 8 13 29.94 1014 10 16 0.00 0.00
12:35 pm 12:35 Sunny 86 30 61 16 43 43 W 10 17 29.94 1014 10 16 0.00 0.00
12:55 pm 12:55 Sunny 88 31 61 16 40 40 SSW 8 13 29.91 1013 10 16 0.00 0.00
1:15 pm 13:15 Sunny 88 31 59 15 38 38 WSW 12 19 29.91 1013 10 16 0.00 0.00
1:35 pm 13:35 Sunny 88 31 61 16 40 40 W 8 13 29.91 1013 10 16 0.00 0.00
1:55 pm 13:55 Sunny 90 32 59 15 36 36 W 10 17 29.91 1013 10 16 0.00 0.00
2:15 pm 14:15 Sunny 90 32 59 15 36 36 WSW 9 15 29.88 1012 10 16 0.00 0.00
2:35 pm 14:35 Sunny 90 32 59 15 36 36 SSW 8 13 29.88 1012 10 16 0.00 0.00
2:55 pm 14:55 Sunny 91 33 61 16 36 36 SSW 9 15 29.88 1012 10 16 0.00 0.00
3:15 pm 15:15 Sunny 91 33 59 15 34 34 SSW 9 15 29.85 1011 10 16 0.00 0.00
3:35 pm 15:35 Sunny 91 33 59 15 34 34 WSW 10 17 29.85 1011 10 16 0.00 0.00
3:55 pm 15:55 Sunny 91 33 59 15 34 34 SW 10 17 29.85 1011 10 16 0.00 0.00
4:15 pm 16:15 Sunny 91 33 59 15 34 34 SW 9 15 29.85 1011 10 16 0.00 0.00
4:35 pm 16:35 Sunny 93 34 59 15 32 32 SW 8 13 29.83 1010 10 16 0.00 0.00
4:55 pm 16:55 Sunny 91 33 59 15 34 34 SW 10 17 29.83 1010 10 16 0.00 0.00
5:15 pm 17:15 Mostly Cloudy 90 32 59 15 36 36 SSW 13 20 29.83 1010 10 16 0.00 0.00
5:35 pm 17:35 Cloudy 90 32 59 15 36 36 SW 6 9 29.85 1011 10 16 0.00 0.00
5:55 pm 17:55 Cloudy 86 30 61 16 43 43 NW 10 17 29.85 1011 10 16 0.00 0.00
6:15 pm 18:15 Cloudy 86 30 61 16 43 43 NW 9 15 29.85 1011 10 16 0.00 0.00
6:35 pm 18:35 Cloudy 86 30 61 16 43 43 NW 10 17 29.85 1011 10 16 0.00 0.00
6:55 pm 18:55 Cloudy 84 29 61 16 45 45 WNW 7 11 29.88 1012 10 16 0.00 0.00
7:15 pm 19:15 Cloudy 82 28 63 17 51 51 WNW 6 9 29.88 1012 10 16 0.00 0.00
7:35 pm 19:35 Cloudy with Light Rain 82 28 61 16 48 48 W 5 7 29.91 1013 10 16 0.00 0.00
7:55 pm 19:55 Cloudy with Light Rain 81 27 63 17 54 54 W 12 19 29.91 1013 10 16 0.00 0.00
8:15 pm 20:15 Cloudy with Light Rain 79 26 63 17 58 58 SW 8 13 29.91 1013 10 16 0.00 0.00
8:35 pm 20:35 Cloudy 79 26 63 17 58 58 SW 7 11 29.91 1013 10 16 0.00 0.00
8:55 pm 20:55 Cloudy 79 26 63 17 58 58 SSW 7 11 29.91 1013 10 16 0.00 0.00
9:15 pm 21:15 Mostly Cloudy 79 26 63 17 58 58 WSW 6 9 29.91 1013 10 16 0.00 0.00
9:35 pm 21:35 Partly Cloudy 79 26 63 17 58 58 W 5 7 29.94 1014 10 16 0.00 0.00
9:55 pm 21:55 Mostly Cloudy 77 25 63 17 61 61 WSW 6 9 29.94 1014 10 16 0.00 0.00
10:15 pm 22:15 Cloudy with Light Rain 77 25 63 17 61 61 W 6 9 29.94 1014 10 16 0.00 0.00
10:35 pm 22:35 Cloudy 75 24 64 18 69 69 NW 7 11 29.94 1014 10 16 0.00 0.00
10:55 pm 22:55 Partly Cloudy 75 24 63 17 65 65 W 8 13 29.94 1014 10 16 0.00 0.00
11:15 pm 23:15 Partly Cloudy 73 23 61 16 65 65 NW 9 15 29.97 1015 10 16 0.00 0.00
11:35 pm 23:35 Partly Cloudy 79 26 59 15 51 51 NNW 24 39 29.97 1015 10 16 0.00 0.00
11:55 pm 23:55 Partly Cloudy 75 24 59 15 57 57 NNW 14 22 30.00 1016 10 16 0.00 0.00

Powered by AerisWeather